DATE,TIME,Air Temp,Precip,Wspeed,WindDir,
ADT,ADT,DegC,.01/in,mph,deg,
1/1/2005,0:00,-12.2,,5.5,229,
1/1/2005,1:00,-12.4,,4.2,229,
1/1/2005,2:00,-14.7,,0.2,229,
1/1/2005,3:00,-17.4,,0.2,229,
1/1/2005,4:00,-18.2,,0.2,229,
1/1/2005,5:00,-18.8,,1.3,229,
1/1/2005,6:00,-19.5,,2.2,229,
1/1/2005,7:00,-19.3,,9.4,78,
1/1/2005,8:00,-19.5,,4.4,63,
1/1/2005,9:00,-15.7,,10.7,90,
1/1/2005,10:00,-14.0,,11.0,87,
1/1/2005,11:00,-14.0,,7.9,98,
1/1/2005,12:00,-14.1,,8.1,104,
1/1/2005,13:00,-15.4,,5.0,85,
1/1/2005,14:00,-15.2,,5.3,93,
1/1/2005,15:00,-14.9,,5.3,79,
1/1/2005,16:00,-14.0,,10.5,76,
1/1/2005,17:00,-14.2,,3.3,88,
1/1/2005,18:00,-15.0,,5.0,88,
1/1/2005,19:00,-15.2,,6.1,92,
1/1/2005,20:00,-14.9,,4.2,96,
1/1/2005,21:00,-15.6,,8.1,81,
1/1/2005,22:00,-16.3,,5.5,99,
1/1/2005,23:00,-16.5,,7.9,89,
1/2/2005,0:00,-16.5,,12.7,82,
1/2/2005,1:00,-16.0,,16.0,86,
1/2/2005,2:00,-15.7,,13.8,106,
1/2/2005,3:00,-15.4,,14.3,93,
1/2/2005,4:00,-15.3,,15.1,95,
1/2/2005,5:00,-14.4,,11.4,87,
1/2/2005,6:00,-13.9,,7.2,104,
1/2/2005,7:00,-13.3,,5.9,104,
1/2/2005,8:00,-11.8,,0.2,104,
1/2/2005,9:00,-10.1,,0.2,104,
1/2/2005,10:00,-7.6,,1.5,107,
1/2/2005,11:00,-7.9,,7.9,205,
1/2/2005,12:00,-8.6,,0.2,200,
1/2/2005,13:00,-10.5,,0.9,200,
1/2/2005,14:00,-13.2,,1.8,200,
1/2/2005,15:00,-13.3,,0.9,200,
1/2/2005,16:00,-11.5,,1.1,200,
1/2/2005,17:00,-14.0,,1.3,200,
1/2/2005,18:00,-12.2,,0.2,265,
1/2/2005,19:00,-11.0,,1.8,265,
1/2/2005,20:00,-11.5,,1.1,265,
1/2/2005,21:00,-9.7,,1.3,217,
1/2/2005,22:00,-8.0,,7.9,142,
1/2/2005,23:00,-6.5,,12.1,155,
1/3/2005,0:00,-6.3,,6.1,143,
1/3/2005,1:00,-6.0,,6.4,139,
1/3/2005,2:00,-6.1,,1.8,139,
1/3/2005,3:00,-5.8,,3.7,186,
1/3/2005,4:00,-5.5,,0.2,186,
1/3/2005,5:00,-5.6,,0.2,160,
1/3/2005,6:00,-7.8,,3.1,131,
1/3/2005,7:00,-5.5,,3.7,185,
1/3/2005,8:00,-4.5,,4.0,239,
1/3/2005,9:00,-4.4,,2.2,239,
1/3/2005,10:00,-4.6,,3.5,140,
1/3/2005,11:00,-3.8,,5.9,141,
1/3/2005,12:00,-4.3,,1.1,151,
1/3/2005,13:00,-6.5,,5.5,141,
1/3/2005,14:00,-5.8,,0.2,161,
1/3/2005,15:00,-6.2,,0.9,161,
1/3/2005,16:00,-6.6,,0.2,161,
1/3/2005,17:00,-4.9,,0.9,270,
1/3/2005,18:00,-6.0,,3.7,270,
1/3/2005,19:00,-6.4,,0.2,270,
1/3/2005,20:00,-6.2,,2.4,270,
1/3/2005,21:00,-5.2,,0.2,270,
1/3/2005,22:00,-3.8,,8.3,191,
1/3/2005,23:00,-2.4,,8.8,204,
1/4/2005,0:00,-3.3,,8.6,231,
1/4/2005,1:00,-5.5,,10.3,240,
1/4/2005,2:00,-10.6,,7.2,229,
1/4/2005,3:00,-7.8,,16.7,268,
1/4/2005,4:00,-8.1,,16.9,258,
1/4/2005,5:00,-10.3,,12.5,248,
1/4/2005,6:00,-8.9,,20.0,234,
1/4/2005,7:00,-9.4,,18.0,219,
1/4/2005,8:00,-9.7,,20.0,205,
1/4/2005,9:00,-10.4,,16.7,206,
1/4/2005,10:00,-10.3,,16.7,223,
1/4/2005,11:00,-11.7,,16.4,216,
1/4/2005,12:00,-10.0,,18.0,213,
1/4/2005,13:00,-7.7,,24.1,225,
1/4/2005,14:00,-6.4,,32.2,237,
1/4/2005,15:00,-6.0,,27.2,251,
1/4/2005,16:00,-10.6,,22.6,282,
1/4/2005,17:00,-12.5,,17.3,275,
1/4/2005,18:00,-13.6,,25.0,280,
1/4/2005,19:00,-14.0,,20.4,264,
1/4/2005,20:00,-14.9,,19.3,270,
1/4/2005,21:00,-14.8,,17.3,261,
1/4/2005,22:00,-14.2,,14.9,228,
1/4/2005,23:00,-14.1,,14.7,224,
1/5/2005,0:00,-14.1,,10.3,216,
1/5/2005,1:00,-15.9,,6.6,222,
1/5/2005,2:00,-17.4,,6.1,184,
1/5/2005,3:00,-15.9,,7.0,225,
1/5/2005,4:00,-12.3,,13.2,241,
1/5/2005,5:00,-7.7,,26.7,228,
1/5/2005,6:00,-9.2,,31.1,262,
1/5/2005,7:00,-11.1,,23.7,267,
1/5/2005,8:00,-14.4,,15.3,293,
1/5/2005,9:00,-14.9,,14.0,257,
1/5/2005,10:00,-14.6,,15.8,250,
1/5/2005,11:00,-14.3,,16.9,261,
1/5/2005,12:00,-14.2,,18.6,259,
1/5/2005,13:00,-14.3,,18.2,271,
1/5/2005,14:00,-16.2,,22.8,260,
1/5/2005,15:00,-17.5,,24.3,271,
1/5/2005,16:00,-18.5,,21.5,266,
1/5/2005,17:00,-19.7,,23.0,278,
1/5/2005,18:00,-21.0,,29.4,282,
1/5/2005,19:00,-21.6,,22.8,263,
1/5/2005,20:00,-21.6,,23.5,254,
1/5/2005,21:00,-21.8,,17.8,245,
1/5/2005,22:00,-22.2,,24.1,268,
1/5/2005,23:00,-22.7,,19.5,251,
1/6/2005,0:00,-22.9,,9.4,266,
1/6/2005,1:00,-22.5,,11.4,225,
1/6/2005,2:00,-21.8,,10.1,240,
1/6/2005,3:00,-20.7,,12.7,228,
1/6/2005,4:00,-20.5,,5.0,199,
1/6/2005,5:00,-19.7,,3.7,195,
1/6/2005,6:00,-18.8,,5.3,147,
1/6/2005,7:00,-17.4,,8.6,148,
1/6/2005,8:00,-15.9,,4.6,153,
1/6/2005,9:00,-14.1,,4.2,137,
1/6/2005,10:00,-12.3,,6.1,178,
1/6/2005,11:00,-9.1,,8.1,209,
1/6/2005,12:00,-6.5,,11.8,219,
1/6/2005,13:00,-3.9,,18.2,257,
1/6/2005,14:00,-2.6,,25.2,259,
1/6/2005,15:00,-2.3,,24.6,260,
1/6/2005,16:00,-1.9,,23.0,262,
1/6/2005,17:00,-1.2,,28.3,267,
1/6/2005,18:00,-0.9,,31.4,275,
1/6/2005,19:00,,,,,
1/6/2005,20:00,-1.1,,23.2,283,
1/6/2005,21:00,-1.3,,21.9,286,
1/6/2005,22:00,-1.5,,20.2,280,
1/6/2005,23:00,-1.7,,16.7,275,
1/7/2005,0:00,-1.9,,14.9,278,
1/7/2005,1:00,-2.1,,15.3,266,
1/7/2005,2:00,-2.2,,14.7,259,
1/7/2005,3:00,-3.0,,16.0,260,
1/7/2005,4:00,-3.6,,11.4,249,
1/7/2005,5:00,-4.0,,7.7,247,
1/7/2005,6:00,-3.8,,12.9,236,
1/7/2005,7:00,-2.5,,12.5,236,
1/7/2005,8:00,-2.1,,11.6,245,
1/7/2005,9:00,-2.0,,11.8,241,
1/7/2005,10:00,-2.0,,11.6,258,
1/7/2005,11:00,-2.2,,11.2,251,
1/7/2005,12:00,-2.1,,13.2,239,
1/7/2005,13:00,-1.7,,17.1,247,
1/7/2005,14:00,-1.6,,18.0,245,
1/7/2005,15:00,-1.4,,12.9,262,
1/7/2005,16:00,-1.5,,13.8,243,
1/7/2005,17:00,-1.4,,11.4,240,
1/7/2005,18:00,-1.4,,14.3,243,
1/7/2005,19:00,-0.8,,14.7,233,
1/7/2005,20:00,-0.4,,20.6,238,
1/7/2005,21:00,0.0,,17.8,238,
1/7/2005,22:00,-0.1,,20.2,233,
1/7/2005,23:00,0.4,,23.9,253,
1/8/2005,0:00,0.4,,18.0,237,
1/8/2005,1:00,0.6,,22.4,253,
1/8/2005,2:00,0.1,,20.6,239,
1/8/2005,3:00,-0.3,,21.3,246,
1/8/2005,4:00,-0.6,,22.8,251,
1/8/2005,5:00,-0.9,,22.6,250,
1/8/2005,6:00,-0.6,,25.4,259,
1/8/2005,7:00,-0.1,,25.7,259,
1/8/2005,8:00,-0.4,,23.5,242,
1/8/2005,9:00,-0.3,,23.0,258,
1/8/2005,10:00,-0.6,,21.3,253,
1/8/2005,11:00,-0.6,,16.4,254,
1/8/2005,12:00,-0.6,,13.8,260,
1/8/2005,13:00,-3.1,,10.5,307,
1/8/2005,14:00,-8.4,,13.8,326,
1/8/2005,15:00,-12.4,,15.6,315,
1/8/2005,16:00,-14.2,,16.0,295,
1/8/2005,17:00,-16.3,,14.7,305,
1/8/2005,18:00,-19.6,,23.5,301,
1/8/2005,19:00,-20.0,,22.8,285,
1/8/2005,20:00,-20.9,,16.4,292,
1/8/2005,21:00,-21.3,,19.1,275,
1/8/2005,22:00,-21.9,,19.1,271,
1/8/2005,23:00,-22.3,,20.4,272,
1/9/2005,0:00,-22.6,,20.0,277,
1/9/2005,1:00,-22.8,,21.9,266,
1/9/2005,2:00,-23.4,,24.1,280,
1/9/2005,3:00,-23.7,,24.6,273,
1/9/2005,4:00,-24.1,,22.1,270,
1/9/2005,5:00,-24.5,,21.0,272,
1/9/2005,6:00,-24.8,,20.8,268,
1/9/2005,7:00,-24.9,,21.5,270,
1/9/2005,8:00,-25.4,,22.6,279,
1/9/2005,9:00,-25.6,,23.2,284,
1/9/2005,10:00,-25.8,,20.0,273,
1/9/2005,11:00,-25.8,,26.7,281,
1/9/2005,12:00,-26.3,,23.0,291,
1/9/2005,13:00,-26.6,,23.2,276,
1/9/2005,14:00,-26.5,,23.9,273,
1/9/2005,15:00,-26.8,,22.8,277,
1/9/2005,16:00,-27.0,,18.4,274,
1/9/2005,17:00,-27.5,,17.8,271,
1/9/2005,18:00,-27.8,,18.2,282,
1/9/2005,19:00,-27.9,,20.6,277,
1/9/2005,20:00,-27.9,,23.9,280,
1/9/2005,21:00,-28.0,,22.1,274,
1/9/2005,22:00,-27.9,,21.5,269,
1/9/2005,23:00,-28.2,,19.1,283,
1/10/2005,0:00,-28.8,,16.4,276,
1/10/2005,1:00,-29.3,,20.6,272,
1/10/2005,2:00,-29.7,,16.0,283,
1/10/2005,3:00,-29.9,,18.4,278,
1/10/2005,4:00,-30.0,,20.0,285,
1/10/2005,5:00,-30.3,,15.3,278,
1/10/2005,6:00,-30.3,,18.0,271,
1/10/2005,7:00,-30.3,,20.6,274,
1/10/2005,8:00,-29.8,,18.4,273,
1/10/2005,9:00,-29.5,,19.3,270,
1/10/2005,10:00,-29.3,,15.8,273,
1/10/2005,11:00,-28.9,,15.3,278,
1/10/2005,12:00,-28.9,,17.5,271,
1/10/2005,13:00,-29.4,,16.7,273,
1/10/2005,14:00,-29.5,,15.3,263,
1/10/2005,15:00,-30.3,,16.9,258,
1/10/2005,16:00,-30.6,,13.4,262,
1/10/2005,17:00,-30.7,,14.0,259,
1/10/2005,18:00,-31.0,,14.0,256,
1/10/2005,19:00,-31.4,,13.2,256,
1/10/2005,20:00,-30.8,,15.3,255,
1/10/2005,21:00,-28.9,,12.5,268,
1/10/2005,22:00,-29.4,,19.5,270,
1/10/2005,23:00,-29.4,,18.2,268,
1/11/2005,0:00,-29.0,,14.5,274,
1/11/2005,1:00,-29.5,,18.4,273,
1/11/2005,2:00,-28.9,,18.0,277,
1/11/2005,3:00,-29.9,,18.9,277,
1/11/2005,4:00,-31.1,,14.9,265,
1/11/2005,5:00,-31.7,,16.2,268,
1/11/2005,6:00,-31.8,,14.5,265,
1/11/2005,7:00,-32.2,,12.3,255,
1/11/2005,8:00,-31.8,,18.0,260,
1/11/2005,9:00,-31.7,,17.5,259,
1/11/2005,10:00,-31.3,,15.3,261,
1/11/2005,11:00,-31.5,,15.3,263,
1/11/2005,12:00,-31.7,,14.3,257,
1/11/2005,13:00,-31.6,,14.9,255,
1/11/2005,14:00,-30.9,,14.9,252,
1/11/2005,15:00,-31.1,,15.1,254,
1/11/2005,16:00,-31.4,,12.7,252,
1/11/2005,17:00,-31.6,,14.5,257,
1/11/2005,18:00,-31.8,,13.4,244,
1/11/2005,19:00,-31.7,,13.4,262,
1/11/2005,20:00,-31.7,,14.3,253,
1/11/2005,21:00,-31.6,,12.9,249,
1/11/2005,22:00,-30.5,,14.7,250,
1/11/2005,23:00,-29.8,,18.9,262,
1/12/2005,0:00,-29.0,,16.9,265,
1/12/2005,1:00,-28.4,,13.4,280,
1/12/2005,2:00,-28.0,,16.7,284,
1/12/2005,3:00,-27.5,,13.4,287,
1/12/2005,4:00,-27.8,,9.9,286,
1/12/2005,5:00,-29.1,,7.0,267,
1/12/2005,6:00,-29.8,,7.9,272,
1/12/2005,7:00,-30.4,,8.3,257,
1/12/2005,8:00,-30.8,,7.7,270,
1/12/2005,9:00,-31.3,,6.6,258,
1/12/2005,10:00,-31.9,,6.8,236,
1/12/2005,11:00,-31.9,,7.9,238,
1/12/2005,12:00,-31.2,,10.5,260,
1/12/2005,13:00,-31.3,,10.5,253,
1/12/2005,14:00,-31.3,,9.4,250,
1/12/2005,15:00,-31.3,,11.6,254,
1/12/2005,16:00,-32.1,,8.8,239,
1/12/2005,17:00,-32.1,,10.1,222,
1/12/2005,18:00,-31.6,,9.4,242,
1/12/2005,19:00,-31.6,,8.3,248,
1/12/2005,20:00,-31.5,,10.3,236,
1/12/2005,21:00,-32.2,,7.0,245,
1/12/2005,22:00,-32.2,,9.2,243,
1/12/2005,23:00,-32.1,,9.6,252,
1/13/2005,0:00,-32.1,,10.5,245,
1/13/2005,1:00,-32.3,,7.9,232,
1/13/2005,2:00,-33.0,,0.2,212,
1/13/2005,3:00,-33.4,,0.2,207,
1/13/2005,4:00,-33.7,,4.2,173,
1/13/2005,5:00,-33.4,,6.1,220,
1/13/2005,6:00,-32.7,,2.9,245,
1/13/2005,7:00,-32.8,,1.8,262,
1/13/2005,8:00,-33.9,,3.3,202,
1/13/2005,9:00,-34.6,,1.8,270,
1/13/2005,10:00,-35.2,,0.2,271,
1/13/2005,11:00,-35.3,,3.7,271,
1/13/2005,12:00,-35.5,,0.2,272,
1/13/2005,13:00,-35.0,,0.7,272,
1/13/2005,14:00,-36.0,,0.2,170,
1/13/2005,15:00,-36.1,,0.2,170,
1/13/2005,16:00,-36.1,,0.2,170,
1/13/2005,17:00,-36.3,,1.1,170,
1/13/2005,18:00,-35.9,,1.1,132,
1/13/2005,19:00,-35.2,,0.2,132,
1/13/2005,20:00,-35.5,,0.2,132,
1/13/2005,21:00,-35.6,,0.2,132,
1/13/2005,22:00,-34.3,,0.2,132,
1/13/2005,23:00,-34.0,,1.5,132,
1/14/2005,0:00,-34.4,,0.2,132,
1/14/2005,1:00,-35.7,,0.7,132,
1/14/2005,2:00,-36.2,,0.2,132,
1/14/2005,3:00,-36.5,,1.3,132,
1/14/2005,4:00,-36.7,,0.2,132,
1/14/2005,5:00,-36.9,,0.2,132,
1/14/2005,6:00,-37.3,,0.2,132,
1/14/2005,7:00,-37.6,,0.2,132,
1/14/2005,8:00,-37.3,,0.2,132,
1/14/2005,9:00,-37.5,,0.2,132,
1/14/2005,10:00,-37.7,,0.2,132,
1/14/2005,11:00,-37.9,,0.2,132,
1/14/2005,12:00,-38.2,,0.2,132,
1/14/2005,13:00,-38.3,,0.2,132,
1/14/2005,14:00,-38.1,,0.2,132,
1/14/2005,15:00,-38.2,,0.2,132,
1/14/2005,16:00,-37.7,,1.3,132,
1/14/2005,17:00,-38.3,,0.2,132,
1/14/2005,18:00,-38.4,,0.2,132,
1/14/2005,19:00,-37.3,,0.2,132,
1/14/2005,20:00,-35.9,,2.4,132,
1/14/2005,21:00,-34.7,,4.6,19,
1/14/2005,22:00,-33.1,,2.6,360,
1/14/2005,23:00,-32.9,,2.6,337,
1/15/2005,0:00,-33.2,,1.8,309,
1/15/2005,1:00,-33.8,,1.8,272,
1/15/2005,2:00,-34.0,,4.2,304,
1/15/2005,3:00,-33.5,,4.6,317,
1/15/2005,4:00,-32.8,,2.0,347,
1/15/2005,5:00,-33.7,,3.7,328,
1/15/2005,6:00,-33.1,,4.8,306,
1/15/2005,7:00,-33.0,,3.3,286,
1/15/2005,8:00,-32.8,,4.6,278,
1/15/2005,9:00,-33.5,,3.5,241,
1/15/2005,10:00,-34.3,,5.0,244,
1/15/2005,11:00,-34.6,,4.6,224,
1/15/2005,12:00,-34.2,,4.6,245,
1/15/2005,13:00,-33.1,,6.1,238,
1/15/2005,14:00,-33.3,,7.5,234,
1/15/2005,15:00,-35.4,,4.4,243,
1/15/2005,16:00,-36.8,,5.0,251,
1/15/2005,17:00,-36.7,,4.6,256,
1/15/2005,18:00,-35.6,,4.6,237,
1/15/2005,19:00,-36.2,,3.3,207,
1/15/2005,20:00,-36.5,,2.9,251,
1/15/2005,21:00,-36.0,,0.9,237,
1/15/2005,22:00,-36.8,,2.2,201,
1/15/2005,23:00,-37.4,,2.2,228,
1/16/2005,0:00,-37.6,,1.1,212,
1/16/2005,1:00,-38.6,,0.7,252,
1/16/2005,2:00,-38.9,,2.4,160,
1/16/2005,3:00,-39.5,,0.9,218,
1/16/2005,4:00,-40.1,,0.2,207,
1/16/2005,5:00,-40.0,,1.8,91,
1/16/2005,6:00,-41.1,,1.5,186,
1/16/2005,7:00,-40.6,,0.2,58,
1/16/2005,8:00,-40.4,,0.2,267,
1/16/2005,9:00,-41.0,,1.1,15,
1/16/2005,10:00,-40.9,,2.2,87,
1/16/2005,11:00,-41.1,,1.8,92,
1/16/2005,12:00,-40.8,,2.2,102,
1/16/2005,13:00,-41.0,,1.3,38,
1/16/2005,14:00,-41.3,,3.5,61,
1/16/2005,15:00,-41.2,,3.5,99,
1/16/2005,16:00,-41.0,,3.3,83,
1/16/2005,17:00,-39.1,,6.4,83,
1/16/2005,18:00,-38.7,,5.9,81,
1/16/2005,19:00,-38.1,,7.0,94,
1/16/2005,20:00,-38.5,,6.4,87,
1/16/2005,21:00,-38.3,,5.7,90,
1/16/2005,22:00,-37.7,,10.5,82,
1/16/2005,23:00,-37.7,,9.9,78,
1/17/2005,0:00,-36.6,,10.3,76,
1/17/2005,1:00,-36.2,,13.2,73,
1/17/2005,2:00,-36.0,,12.5,76,
1/17/2005,3:00,-36.0,,11.8,76,
1/17/2005,4:00,-35.8,,12.7,89,
1/17/2005,5:00,-36.1,,11.2,82,
1/17/2005,6:00,-35.2,,10.5,93,
1/17/2005,7:00,-34.7,,5.9,99,
1/17/2005,8:00,-35.3,,5.7,110,
1/17/2005,9:00,-36.7,,4.0,107,
1/17/2005,10:00,-37.5,,3.3,92,
1/17/2005,11:00,-38.3,,4.0,100,
1/17/2005,12:00,-38.1,,2.6,92,
1/17/2005,13:00,-37.8,,3.1,103,
1/17/2005,14:00,-37.8,,1.8,150,
1/17/2005,15:00,-38.0,,4.2,109,
1/17/2005,16:00,-37.8,,3.5,103,
1/17/2005,17:00,-38.5,,2.0,78,
1/17/2005,18:00,-37.6,,2.4,85,
1/17/2005,19:00,-37.0,,2.9,102,
1/17/2005,20:00,-36.3,,3.5,108,
1/17/2005,21:00,-36.0,,3.3,84,
1/17/2005,22:00,-35.5,,2.9,104,
1/17/2005,23:00,-35.0,,3.3,77,
1/18/2005,0:00,-35.1,,3.3,106,
1/18/2005,1:00,-35.0,,2.2,137,
1/18/2005,2:00,-34.9,,1.3,210,
1/18/2005,3:00,-34.3,,1.1,133,
1/18/2005,4:00,-33.2,,2.2,151,
1/18/2005,5:00,-32.7,,0.2,187,
1/18/2005,6:00,-31.3,,1.3,195,
1/18/2005,7:00,-30.7,,0.9,200,
1/18/2005,8:00,-30.1,,1.5,174,
1/18/2005,9:00,-29.5,,1.8,239,
1/18/2005,10:00,-29.3,,2.2,196,
1/18/2005,11:00,-28.4,,2.0,223,
1/18/2005,12:00,-27.8,,3.5,190,
1/18/2005,13:00,-28.2,,1.5,201,
1/18/2005,14:00,-28.3,,0.7,192,
1/18/2005,15:00,-28.3,,2.0,217,
1/18/2005,16:00,-28.9,,2.0,206,
1/18/2005,17:00,-29.2,,2.0,275,
1/18/2005,18:00,-29.4,,3.1,305,
1/18/2005,19:00,-29.1,,0.4,210,
1/18/2005,20:00,-27.3,,0.2,0,
1/18/2005,21:00,-28.8,,0.9,189,
1/18/2005,22:00,-28.9,,0.2,18,
1/18/2005,23:00,-29.3,,0.4,316,
1/19/2005,0:00,-28.2,,0.2,312,
1/19/2005,1:00,-26.7,,0.2,230,
1/19/2005,2:00,-25.7,,0.9,162,
1/19/2005,3:00,-25.4,,0.2,150,
1/19/2005,4:00,-24.8,,0.2,37,
1/19/2005,5:00,-24.6,,0.2,202,
1/19/2005,6:00,-24.6,,2.4,272,
1/19/2005,7:00,-25.0,,1.5,207,
1/19/2005,8:00,-24.9,,1.5,335,
1/19/2005,9:00,-23.2,,3.5,358,
1/19/2005,10:00,-23.7,,3.7,355,
1/19/2005,11:00,-24.7,,3.5,7,
1/19/2005,12:00,-24.8,,2.2,347,
1/19/2005,13:00,-26.3,,2.4,11,
1/19/2005,14:00,-26.1,,0.2,5,
1/19/2005,15:00,-26.5,,2.0,44,
1/19/2005,16:00,-26.9,,1.3,1,
1/19/2005,17:00,-26.7,,3.1,24,
1/19/2005,18:00,-27.6,,4.0,22,
1/19/2005,19:00,-28.1,,3.3,4,
1/19/2005,20:00,-28.0,,4.6,46,
1/19/2005,21:00,-28.0,,2.4,83,
1/19/2005,22:00,-27.8,,5.9,44,
1/19/2005,23:00,-28.3,,5.3,57,
1/20/2005,0:00,-29.0,,5.3,48,
1/20/2005,1:00,-28.7,,3.1,51,
1/20/2005,2:00,-28.7,,3.7,57,
1/20/2005,3:00,-29.1,,3.1,38,
1/20/2005,4:00,-28.6,,5.3,43,
1/20/2005,5:00,-28.5,,4.6,51,
1/20/2005,6:00,-27.5,,4.8,49,
1/20/2005,7:00,-27.1,,4.6,49,
1/20/2005,8:00,-27.4,,3.3,69,
1/20/2005,9:00,-26.8,,5.7,36,
1/20/2005,10:00,-26.1,,9.0,43,
1/20/2005,11:00,-26.7,,8.1,43,
1/20/2005,12:00,-26.2,,9.0,60,
1/20/2005,13:00,-26.1,,7.7,77,
1/20/2005,14:00,-25.9,,11.0,53,
1/20/2005,15:00,-25.6,,6.8,61,
1/20/2005,16:00,-26.2,,10.5,58,
1/20/2005,17:00,-27.3,,7.0,51,
1/20/2005,18:00,-27.6,,7.0,55,
1/20/2005,19:00,-27.8,,6.4,62,
1/20/2005,20:00,-28.2,,6.6,49,
1/20/2005,21:00,-28.8,,5.7,54,
1/20/2005,22:00,-29.3,,3.3,81,
1/20/2005,23:00,-29.8,,6.4,62,
1/21/2005,0:00,-28.9,,7.5,78,
1/21/2005,1:00,-29.5,,6.8,81,
1/21/2005,2:00,-28.5,,10.5,84,
1/21/2005,3:00,-30.3,,5.0,94,
1/21/2005,4:00,-31.7,,3.5,103,
1/21/2005,5:00,-32.1,,2.6,131,
1/21/2005,6:00,-31.7,,3.1,105,
1/21/2005,7:00,-30.2,,5.9,94,
1/21/2005,8:00,-30.4,,5.7,89,
1/21/2005,9:00,-29.9,,4.4,98,
1/21/2005,10:00,-29.5,,4.8,86,
1/21/2005,11:00,-28.6,,5.0,95,
1/21/2005,12:00,-28.6,,5.9,82,
1/21/2005,13:00,-27.7,,8.1,72,
1/21/2005,14:00,-26.2,,7.7,86,
1/21/2005,15:00,-24.6,,9.6,101,
1/21/2005,16:00,-24.2,,11.2,103,
1/21/2005,17:00,-23.9,,9.9,100,
1/21/2005,18:00,-23.5,,11.6,99,
1/21/2005,19:00,-23.8,,7.5,75,
1/21/2005,20:00,-23.2,,12.5,75,
1/21/2005,21:00,-22.9,,12.7,84,
1/21/2005,22:00,-22.8,,11.4,86,
1/21/2005,23:00,-22.9,,9.2,64,
1/22/2005,0:00,-23.1,,9.9,72,
1/22/2005,1:00,-23.2,,5.9,76,
1/22/2005,2:00,-23.4,,8.8,57,
1/22/2005,3:00,-23.3,,9.9,62,
1/22/2005,4:00,-23.4,,9.9,61,
1/22/2005,5:00,-23.7,,8.1,55,
1/22/2005,6:00,-23.4,,9.0,54,
1/22/2005,7:00,-23.0,,10.1,59,
1/22/2005,8:00,-22.9,,11.0,63,
1/22/2005,9:00,-22.7,,10.5,69,
1/22/2005,10:00,-22.7,,10.3,72,
1/22/2005,11:00,-22.5,,9.0,61,
1/22/2005,12:00,-22.5,,10.1,60,
1/22/2005,13:00,-22.7,,10.7,64,
1/22/2005,14:00,-22.9,,11.4,59,
1/22/2005,15:00,-22.9,,10.5,59,
1/22/2005,16:00,-22.7,,12.1,61,
1/22/2005,17:00,-22.6,,11.6,54,
1/22/2005,18:00,-22.2,,10.7,60,
1/22/2005,19:00,-22.0,,12.5,61,
1/22/2005,20:00,-21.7,,14.0,68,
1/22/2005,21:00,-21.3,,16.4,68,
1/22/2005,22:00,-21.4,,17.1,71,
1/22/2005,23:00,-21.2,,15.3,67,
1/23/2005,0:00,-21.2,,17.1,75,
1/23/2005,1:00,-21.2,,15.3,72,
1/23/2005,2:00,-21.4,,14.0,84,
1/23/2005,3:00,-21.2,,12.7,71,
1/23/2005,4:00,-21.7,,10.3,96,
1/23/2005,5:00,-22.1,,12.9,94,
1/23/2005,6:00,-22.5,,6.4,94,
1/23/2005,7:00,-21.6,,14.5,81,
1/23/2005,8:00,-22.4,,11.0,86,
1/23/2005,9:00,-22.5,,12.9,91,
1/23/2005,10:00,-22.2,,9.6,87,
1/23/2005,11:00,-21.7,,10.1,96,
1/23/2005,12:00,-21.5,,12.1,79,
1/23/2005,13:00,-21.6,,14.7,75,
1/23/2005,14:00,-21.6,,14.7,67,
1/23/2005,15:00,-22.1,,13.6,65,
1/23/2005,16:00,-22.3,,14.9,71,
1/23/2005,17:00,-23.6,,16.7,84,
1/23/2005,18:00,-23.5,,13.2,83,
1/23/2005,19:00,-23.5,,9.0,62,
1/23/2005,20:00,-23.7,,9.2,50,
1/23/2005,21:00,-23.0,,15.6,35,
1/23/2005,22:00,-23.5,,16.0,59,
1/23/2005,23:00,-23.5,,14.0,64,
1/24/2005,0:00,-23.8,,14.0,69,
1/24/2005,1:00,-24.0,,11.4,60,
1/24/2005,2:00,-23.9,,8.1,44,
1/24/2005,3:00,-23.5,,9.2,47,
1/24/2005,4:00,-23.7,,9.6,29,
1/24/2005,5:00,-24.2,,11.0,2,
1/24/2005,6:00,-24.5,,9.2,16,
1/24/2005,7:00,-24.7,,7.2,19,
1/24/2005,8:00,-25.2,,8.1,14,
1/24/2005,9:00,-25.7,,6.1,4,
1/24/2005,10:00,-26.2,,7.9,3,
1/24/2005,11:00,-27.3,,4.8,10,
1/24/2005,12:00,-28.9,,4.4,32,
1/24/2005,13:00,-28.1,,3.7,25,
1/24/2005,14:00,-28.8,,0.9,360,
1/24/2005,15:00,-28.6,,0.2,76,
1/24/2005,16:00,-29.2,,0.9,224,
1/24/2005,17:00,-30.5,,2.9,279,
1/24/2005,18:00,-30.5,,0.2,164,
1/24/2005,19:00,-31.5,,2.4,231,
1/24/2005,20:00,-31.5,,1.3,216,
1/24/2005,21:00,-32.6,,1.5,218,
1/24/2005,22:00,-32.5,,1.8,234,
1/24/2005,23:00,-32.4,,1.8,233,
1/25/2005,0:00,-32.4,,2.4,250,
1/25/2005,1:00,-31.9,,1.8,252,
1/25/2005,2:00,-32.9,,0.2,279,
1/25/2005,3:00,-32.4,,1.3,239,
1/25/2005,4:00,-32.6,,0.4,200,
1/25/2005,5:00,-32.7,,0.9,293,
1/25/2005,6:00,-32.6,,1.5,323,
1/25/2005,7:00,-32.7,,0.9,167,
1/25/2005,8:00,-33.0,,1.1,225,
1/25/2005,9:00,-32.3,,3.1,223,
1/25/2005,10:00,-31.7,,4.2,246,
1/25/2005,11:00,-30.7,,4.8,262,
1/25/2005,12:00,-30.4,,3.7,253,
1/25/2005,13:00,-29.2,,5.0,248,
1/25/2005,14:00,-30.1,,6.6,294,
1/25/2005,15:00,-30.2,,7.2,308,
1/25/2005,16:00,-29.2,,7.7,305,
1/25/2005,17:00,-27.5,,6.8,315,
1/25/2005,18:00,-28.2,,5.3,264,
1/25/2005,19:00,-28.2,,6.4,249,
1/25/2005,20:00,-29.3,,5.3,265,
1/25/2005,21:00,-31.0,,6.4,260,
1/25/2005,22:00,-32.0,,3.7,283,
1/25/2005,23:00,-31.6,,5.7,267,
1/26/2005,0:00,-32.2,,5.5,266,
1/26/2005,1:00,-33.0,,2.4,248,
1/26/2005,2:00,-33.6,,3.1,257,
1/26/2005,3:00,-33.7,,2.6,233,
1/26/2005,4:00,-32.2,,4.8,266,
1/26/2005,5:00,-32.7,,3.3,251,
1/26/2005,6:00,-33.6,,3.5,253,
1/26/2005,7:00,-33.3,,4.8,282,
1/26/2005,8:00,-34.2,,1.1,208,
1/26/2005,9:00,-35.8,,1.8,235,
1/26/2005,10:00,-36.1,,1.8,240,
1/26/2005,11:00,-33.5,,1.1,270,
1/26/2005,12:00,-35.9,,2.6,228,
1/26/2005,13:00,-34.5,,1.1,342,
1/26/2005,14:00,-34.9,,0.2,303,
1/26/2005,15:00,-35.7,,1.1,201,
1/26/2005,16:00,-35.6,,2.0,324,
1/26/2005,17:00,-35.8,,0.9,286,
1/26/2005,18:00,-36.0,,1.8,358,
1/26/2005,19:00,-35.8,,2.0,242,
1/26/2005,20:00,-36.2,,1.5,350,
1/26/2005,21:00,-35.2,,0.2,314,
1/26/2005,22:00,-35.5,,1.8,246,
1/26/2005,23:00,-35.3,,2.2,254,
1/27/2005,0:00,-36.5,,0.9,247,
1/27/2005,1:00,-35.2,,2.6,289,
1/27/2005,2:00,-36.2,,1.1,188,
1/27/2005,3:00,-36.3,,1.8,303,
1/27/2005,4:00,-36.1,,2.2,247,
1/27/2005,5:00,-37.1,,0.2,255,
1/27/2005,6:00,-37.3,,2.4,228,
1/27/2005,7:00,-37.0,,1.5,227,
1/27/2005,8:00,-36.2,,1.3,241,
1/27/2005,9:00,-35.8,,1.5,196,
1/27/2005,10:00,-36.8,,1.8,240,
1/27/2005,11:00,-37.4,,1.8,218,
1/27/2005,12:00,-37.1,,1.8,256,
1/27/2005,13:00,-37.0,,2.0,258,
1/27/2005,14:00,-37.0,,2.4,257,
1/27/2005,15:00,-37.0,,1.3,220,
1/27/2005,16:00,-37.0,,2.4,226,
1/27/2005,17:00,-36.9,,1.5,268,
1/27/2005,18:00,-37.8,,2.2,251,
1/27/2005,19:00,-37.6,,3.5,262,
1/27/2005,20:00,-37.6,,2.4,239,
1/27/2005,21:00,-38.0,,4.2,220,
1/27/2005,22:00,-38.2,,3.5,241,
1/27/2005,23:00,-37.5,,3.3,255,
1/28/2005,0:00,-37.2,,5.0,247,
1/28/2005,1:00,-37.2,,4.8,250,
1/28/2005,2:00,-37.5,,3.3,231,
1/28/2005,3:00,-37.2,,5.5,239,
1/28/2005,4:00,-36.5,,7.2,243,
1/28/2005,5:00,-36.6,,3.7,252,
1/28/2005,6:00,-37.1,,6.1,232,
1/28/2005,7:00,-36.7,,8.8,230,
1/28/2005,8:00,-35.9,,11.4,243,
1/28/2005,9:00,-35.4,,6.1,254,
1/28/2005,10:00,-34.6,,10.3,241,
1/28/2005,11:00,-32.7,,8.1,238,
1/28/2005,12:00,-31.0,,10.3,240,
1/28/2005,13:00,-29.2,,11.8,242,
1/28/2005,14:00,-28.4,,10.7,241,
1/28/2005,15:00,-27.3,,14.3,242,
1/28/2005,16:00,-26.1,,12.7,248,
1/28/2005,17:00,-25.6,,13.2,250,
1/28/2005,18:00,-25.0,,13.2,250,
1/28/2005,19:00,-24.5,,15.1,259,
1/28/2005,20:00,-24.0,,15.3,243,
1/28/2005,21:00,-23.0,,14.9,243,
1/28/2005,22:00,-22.8,,13.8,248,
1/28/2005,23:00,-22.3,,13.8,255,
1/29/2005,0:00,-22.0,,12.7,253,
1/29/2005,1:00,-21.5,,12.9,257,
1/29/2005,2:00,-21.0,,14.9,258,
1/29/2005,3:00,-20.7,,15.6,241,
1/29/2005,4:00,-20.3,,13.8,260,
1/29/2005,5:00,-20.0,,11.6,254,
1/29/2005,6:00,-19.7,,10.5,268,
1/29/2005,7:00,-19.2,,12.5,280,
1/29/2005,8:00,-18.3,,9.4,283,
1/29/2005,9:00,-18.1,,9.2,284,
1/29/2005,10:00,-17.5,,5.5,293,
1/29/2005,11:00,-17.3,,5.0,300,
1/29/2005,12:00,-17.3,,4.0,288,
1/29/2005,13:00,-17.2,,4.2,273,
1/29/2005,14:00,-17.3,,3.7,250,
1/29/2005,15:00,-17.1,,5.0,259,
1/29/2005,16:00,-17.5,,4.6,265,
1/29/2005,17:00,-17.1,,5.5,280,
1/29/2005,18:00,-17.5,,4.6,270,
1/29/2005,19:00,-17.4,,6.1,258,
1/29/2005,20:00,-17.3,,7.7,274,
1/29/2005,21:00,-17.6,,5.0,280,
1/29/2005,22:00,-21.0,,4.6,268,
1/29/2005,23:00,-22.7,,4.2,255,
1/30/2005,0:00,-22.8,,5.3,256,
1/30/2005,1:00,-20.9,,6.6,254,
1/30/2005,2:00,-19.8,,5.9,246,
1/30/2005,3:00,-19.9,,7.9,263,
1/30/2005,4:00,-19.5,,7.0,264,
1/30/2005,5:00,-19.9,,7.9,277,
1/30/2005,6:00,-19.5,,8.3,273,
1/30/2005,7:00,-20.1,,9.9,253,
1/30/2005,8:00,-20.1,,11.0,259,
1/30/2005,9:00,-19.9,,11.0,273,
1/30/2005,10:00,-19.6,,11.6,283,
1/30/2005,11:00,-19.2,,10.5,280,
1/30/2005,12:00,-19.0,,10.5,281,
1/30/2005,13:00,-18.8,,7.9,280,
1/30/2005,14:00,-18.8,,7.9,281,
1/30/2005,15:00,-18.8,,7.9,279,
1/30/2005,16:00,-19.1,,9.0,294,
1/30/2005,17:00,-19.5,,5.7,284,
1/30/2005,18:00,-20.1,,6.6,285,
1/30/2005,19:00,-20.2,,5.0,301,
1/30/2005,20:00,-20.1,,5.7,312,
1/30/2005,21:00,-19.8,,5.0,324,
1/30/2005,22:00,-19.9,,5.5,337,
1/30/2005,23:00,-20.6,,5.5,331,
1/31/2005,0:00,-21.3,,5.0,339,
1/31/2005,1:00,-21.8,,6.1,343,
1/31/2005,2:00,-21.0,,6.6,8,
1/31/2005,3:00,-21.5,,8.3,33,
1/31/2005,4:00,-23.5,,7.5,33,
1/31/2005,5:00,-25.3,,5.3,36,
1/31/2005,6:00,-26.9,,3.3,23,
1/31/2005,7:00,-29.1,,4.4,16,
1/31/2005,8:00,-31.5,,1.8,11,
1/31/2005,9:00,-32.8,,3.5,4,
1/31/2005,10:00,-32.0,,4.8,351,
1/31/2005,11:00,-32.9,,4.4,0,
1/31/2005,12:00,-32.5,,4.4,7,
1/31/2005,13:00,-31.3,,4.4,221,
1/31/2005,14:00,-33.9,,4.0,6,
1/31/2005,15:00,-35.1,,2.2,14,
1/31/2005,16:00,-35.9,,2.0,7,
1/31/2005,17:00,-36.3,,2.9,5,
1/31/2005,18:00,-37.0,,3.7,3,
1/31/2005,19:00,-36.5,,3.3,358,
1/31/2005,20:00,-36.0,,0.7,257,
1/31/2005,21:00,-35.7,,1.3,309,